Regional Weather Roundup
Issued by NWS

Home | Current Version | Previous Version | Graphics & Text | Print | Product List | Glossary On
Versions: 1 2 3 4 5 6 7 8 9 10 11 12 13 14 15 16 17 18 19 20 21 22 23 24 25 26 27 28 29 30 31 32 33 34 35 36 37 38 39 40 41 42 43 44 45 46 47 48 49 50
588
ASUS43 KDTX 271910
RWRMI
MICHIGAN HOURLY REGIONAL WEATHER ROUNDUP
NATIONAL WEATHER SERVICE DETROIT/PONTIAC MI
300 PM EDT FRI MAY 27 2016

NOTE: "FAIR" INDICATES FEW OR NO CLOUDS BELOW 12,000 FEET WITH NO
SIGNIFICANT WEATHER AND/OR OBSTRUCTION TO VISIBILITY.

MIZ047>049-052>055-059>063-066>070-074>076-081>083-272000-
SOUTHEAST LOWER MICHIGAN

CITY           SKY/WX    TMP DP  RH WIND       PRES   REMARKS
ADRIAN         MOSUNNY   82  62  50 SW7       29.99F
ALMA           MOSUNNY   82  64  55 S8G17     29.94F
ANN ARBOR      CLOUDY    81  63  54 S6        29.98F
BAD AXE        MOSUNNY   81  65  57 SE5       29.98F
CARO           MOSUNNY   84  62  47 SE7       29.97S
DETROIT CITY   CLOUDY    82  62  50 S8        29.98F
DETROIT        CLOUDY    82  65  56 S8        29.99F
FLINT          CLOUDY    86  64  47 S10       29.96F
GROSSE ILE     CLOUDY    77  66  69 SE8       29.98F
HILLSDALE      CLOUDY    78  58  50 S7        30.00F
HOWELL         CLOUDY    80  63  56 S10       29.98F

CITY           SKY/WX    TMP DP  RH WIND       PRES   REMARKS
JACKSON        CLOUDY    80  64  58 S9        29.98F
LAMBERTVILLE   CLOUDY    84  65  52 W6        29.99F
LANSING        CLOUDY    83  63  50 S15       29.95F
LAPEER         PTSUNNY   83  59  44 S7        29.98F
MASON          CLOUDY    81  64  55 S9G18     29.97F
MONROE         CLOUDY    83  66  56 SE5       29.98F
MT. CLEMENS    CLOUDY    81  67  61 S16       29.97F
PONTIAC        CLOUDY    81  63  54 S9        29.98F
PORT HOPE        N/A     60  58  92 E7        29.98F
PORT HURON     CLOUDY    81  64  57 S10       29.99S
TRI CITIES     MOSUNNY   86  62  44 S7        29.95F
MIDLAND        FAIR      85  63  48 SE10G16   29.93F
TROY           CLOUDY    84  63  47 SE5       30.00S
SAGINAW HB     MOSUNNY   84  59  42 S5        29.94F
$$
MIZ043>046-050>051-056>058-064>065-071>073-077>080-272000-
SOUTHWEST LOWER MICHIGAN

CITY           SKY/WX    TMP DP  RH WIND       PRES   REMARKS
BATTLE CREEK   MOSUNNY   79  64  60 S16       29.97F
BENTON HARBOR  CLOUDY    78  66  66 SE7       29.92F
BIG RAPIDS     CLOUDY    82  67  61 S9G16     29.91F
COLDWATER      CLOUDY    80  63  57 S8        29.98F
FREMONT        FAIR      73  69  86 SW8       29.92S
HOLLAND        CLOUDY    75  67  76 SW7       29.93F
GRAND RAPIDS   PTSUNNY   83  65  54 SW15G26   29.93F
IONIA          PTSUNNY   83  60  46 S16       29.92F
KALAMAZOO      CLOUDY    80  65  59 S12       29.95F
LUDINGTON      CLOUDY    73  65  78 SW9       29.91S
MARSHALL       PTSUNNY   80  63  56 S8        29.97F
MOUNT PLEASANT MOSUNNY   85  65  50 S9        29.92F
MUSKEGON       CLOUDY    71  66  84 S8        29.91F
SOUTH HAVEN    CLOUDY    79  65  61 S8        29.93F
$$
MIZ016>042-272000-
NORTHERN LOWER MICHIGAN

CITY           SKY/WX    TMP DP  RH WIND       PRES   REMARKS
ALPENA         CLOUDY    75  59  57 E14       29.96F
BEAVER ISLAND  CLOUDY    72  61  69 E6        29.93S
BELLAIRE       PTSUNNY   86  54  33 S10       29.91S
CADILLAC       CLOUDY    80  65  61 SE9       29.93F
CHARLEVOIX     CLOUDY    74  62  67 NE8       29.93F
FRANKFORT      CLOUDY    66  61  84 W5        29.91S HAZE
GAYLORD        CLOUDY    81  54  39 S9        29.95F
GRAYLING       CLOUDY    84  59  42 SE10G16   29.95F
HARBOR SPRINGS CLOUDY    83  60  46 SE3       29.91F
HOUGHTON LAKE  CLOUDY    83  62  49 S12       29.95F
MANISTEE       CLOUDY    82  64  54 SE8G16    29.89F
OSCODA         MOSUNNY   73  59  61 SE9       29.98S
PELLSTON       PTSUNNY   83  57  41 S9        29.93F
ROGERS CITY    PTSUNNY   71  59  65 E8        29.96F
TRAVERSE CITY  PTSUNNY   87  58  37 S7        29.87F
$$
MIZ007>008-015-272000-
EASTERN UPPER MICHIGAN

CITY           SKY/WX    TMP DP  RH WIND       PRES   REMARKS
KINROSS          N/A     77  61  57 S8        29.95S
MACKINAC ISLAN CLOUDY    63  56  77 E14G21    29.94F
NEWBERRY       CLOUDY    76  60  57 S9        29.94S
S. S. MARIE    CLOUDY    76  63  64 VRB6      29.94S
MUNISING         N/A     54  51  90 N6        29.92F
$$
MIZ004>006-011>014-085-272000-
CENTRAL UPPER MICHIGAN

CITY           SKY/WX    TMP DP  RH WIND       PRES   REMARKS
MANISTIQUE     CLOUDY    70  64  81 E5        29.92F
ESCANABA       CLOUDY    63  57  82 S6        29.93R
MENOMINEE      RAIN      63  61  94 SE3       29.92S FOG
SAWYER-GWINN   SUNNY     72  63  73 NE6       29.92F
$$
MIZ001>003-009>011-084-272000-
WESTERN UPPER MICHIGAN

CITY           SKY/WX    TMP DP  RH WIND       PRES   REMARKS
IRON MOUNTAIN  CLOUDY    73  61  65 SE9       29.89S
HOUGHTON       CLOUDY    63  58  83 E6        29.91S
COPPER HARBOR    N/A     46  44  93 E3        29.93R
IRONWOOD       CLOUDY    66  61  82 E7        29.86S
$$

ABBREVIATIONS USED IN REMARKS
   TC - TEMPERATURE IN CELSIUS
  WCI - WIND CHILL INDEX
   HX - HEAT INDEX
  VSB - VISIBILITY





USA.gov is the U.S. government's official web portal to all federal, state and local government web resources and services.